CFS Alert, Nunavut

Past 24 Hour Conditions

This table is a summary of hourly weather conditions for the past 24 hours. This summary includes the following parameters: temperature, humidity, dew point, wind speed and direction, air pressure, visibility and/or wind chill and humidex.
Date / Time
(EDT)
Conditions Temp (°C) Humidity (%) Dew Point (°C) Wind (km/h) Pressure (kPa) Vis (km) Wind Chill
23 September 2014
2:00 Drifting Snow -6   77 -9 WSW 34 100.5 24 -14
1:00 Drifting Snow -6   77 -9 SW 37 100.4 24 -15
00:00 Cloudy -6   77 -9 WSW 39 100.3 24 -15
22 September 2014
23:00 Cloudy -6   77 -10 SW 34 100.3 24 -15
22:00 Cloudy -6   76 -10 SW 31 100.2 24 -14
21:00 Cloudy -6   77 -9 SW 34 100.2 24 -15
20:00 Cloudy -7 79 -10 SW 28 100.1 24 -15
19:00 Cloudy -7 78 -10 SW 28 100.1 24 -15
18:00 Cloudy -7 79 -10 SW 28 100.0 24 -15
17:00 Cloudy -7 80 -10 SW 26 99.9 24 -16
16:00 Cloudy -7 77 -10 SW 26 99.9 24 -15
15:00 Cloudy -7 77 -11 SW 28 99.8 16 -16
14:00 Mostly Cloudy -9 81 -11 SW 28 99.7 24 -18
13:00 Mostly Cloudy -10   80 -12 SW 31 99.7 24 -19
12:00 Partly Cloudy -10   81 -12 WSW 26 99.6 24 -18
11:00 Mostly Cloudy -9 81 -12 WSW 21 99.6 24 -17
10:00 Cloudy -9 84 -11 SW 17 99.6 24 -16
9:00 Cloudy -10   89 -11 WSW 21 99.6 24 -18
8:00 Light Snow -9 92 -10 WSW 18 99.6 24 -16
7:00 Cloudy -8 92 -10 W 15 99.6 24 -15
6:00 Cloudy -9 92 -10 W 15 99.6 24 -15
5:00 Cloudy -8 93 -9 W 15 99.6 24 -15
4:00 Light Snow -8 93 -9 NNW 11 99.6 11 -13
3:00 Light Snow -8 93 -9 NE 11 99.6 5 -13
2:00 Light Snow -8 94 -9 NNE 13 99.6 6 -13
N/A
Not available
 ↑ 
Highest temperature
 ↓ 
Lowest temperature
*
Value not significant.

If you require additional historical weather information, please visit Climate Data Online.